This is the latest recevied weather packets stored in our database for station/object WY7EM. If no packets are shown the sender has not sent any weather packets the latest 10 day(s).
| Time | Temp. | Humidity | Pressure | Rain* | Wind** | Luminosity | Snow |
|---|---|---|---|---|---|---|---|
| 1777471101 | 12.78° C | 32% | 1018.3 hPa | 0 mm | - | 40 W/m² | - |
| 1777470798 | 12.78° C | 32% | 1018.1 hPa | 0 mm | - | 35 W/m² | - |
| 1777470495 | 12.78° C | 33% | 1018 hPa | 0 mm | - | 34 W/m² | - |
| 1777470190 | 12.22° C | 33% | 1018 hPa | 0 mm | - | 34 W/m² | - |
| 1777469887 | 12.22° C | 33% | 1018 hPa | 0 mm | - | 31 W/m² | - |
| 1777469583 | 12.22° C | 34% | 1017.8 hPa | 0 mm | - | 30 W/m² | - |
| 1777469277 | 11.67° C | 34% | 1017.8 hPa | 0 mm | - | 28 W/m² | - |
| 1777468973 | 11.67° C | 34% | 1017.7 hPa | 0 mm | - | 27 W/m² | - |
| 1777468669 | 11.67° C | 33% | 1017.9 hPa | 0 mm | - | 25 W/m² | - |
| 1777468366 | 11.67° C | 32% | 1017.7 hPa | 0 mm | - | 22 W/m² | - |
| 1777468062 | 11.67° C | 32% | 1017.7 hPa | 0 mm | - | 21 W/m² | - |
| 1777467758 | 11.67° C | 32% | 1017.4 hPa | 0 mm | - | 18 W/m² | - |
| 1777467453 | 11.67° C | 32% | 1017.5 hPa | 0 mm | - | 16 W/m² | - |
| 1777467148 | 11.67° C | 32% | 1017.4 hPa | 0 mm | - | 13 W/m² | - |
| 1777466846 | 11.11° C | 33% | 1017.5 hPa | 0 mm | - | 10 W/m² | - |
| 1777466544 | 10.56° C | 33% | 1017.4 hPa | 0 mm | - | 7 W/m² | - |
| 1777466241 | 10.56° C | 34% | 1017.4 hPa | 0 mm | - | 4 W/m² | - |
| 1777465936 | 11.11° C | 34% | 1017.4 hPa | 0 mm | - | 2 W/m² | - |
| 1777465633 | 11.11° C | 33% | 1017.3 hPa | 0 mm | - | 1 W/m² | - |
| 1777465329 | 11.67° C | 33% | 1017.4 hPa | 0 mm | - | 0 W/m² | - |
| 1777465028 | 11.67° C | 33% | 1017.3 hPa | 0 mm | - | 0 W/m² | - |
| 1777464722 | 11.67° C | 32% | 1017.3 hPa | 0 mm | - | 0 W/m² | - |
| 1777464419 | 11.67° C | 32% | 1017.1 hPa | 0 mm | - | 0 W/m² | - |
| 1777464115 | 11.11° C | 33% | 1017 hPa | 0 mm | - | 0 W/m² | - |
| 1777463815 | 11.11° C | 33% | 1017 hPa | 0 mm | - | 0 W/m² | - |
* Rain latest hour (hover to see other rain measurements)
** Current wind speed in m/s (hover to see current wind gust speed)